Flag for Greece Weather past 2 weeks in Rhodes, Rhodes, Greece

72 °F

Passing clouds.

Feels Like: 74 °F
Forecast: 71 / 77 °F
Wind: 10 mph from West

Location: Rhodes Airport

Current Time: Oct 13, 2015 at 10:42:59 AM

Latest Report: Oct 13, 2015 at 9:50 AM

Visibility: N/A

Pressure: 29.95 "Hg

Humidity: 73%

Dew point: 63 °F

Location of RhodesLocation

Historic Weather in Rhodes — Graph


Rhodes temperature yesterday

Maximum temperature yesterday: 81 °F (at 2:20 PM)
Minimum temperature yesterday: 72 °F (at 9:50 PM)
Average temperature yesterday: 76 °F

Past Weeks' High & Low Weather Summary

High81 °F (Sep 28, 12:50 PM)89% (Oct 11, 10:50 PM)30.15 "Hg (Oct 11, 10:50 PM)
Low70 °F (Oct 2, 6:50 AM)50% (Oct 11, 5:50 AM)29.71 "Hg (Oct 6, 3:50 PM)
Average75 °F73%29.93 "Hg
* Reported Sep 28 9:20 AM — Oct 13 9:20 AM, Rhodes, Weather by CustomWeather, © 2015

Note: Actual official high and low records may vary slightly from our data, if they occured in-between our weather recording intervals... More about our weather records


Rhodes weather history for previous 24 hours

Time TempWeatherWind HumidityBarometerVisibility
9:20 AM
Tue, Oct 13
72 °FPassing clouds.9 mph78%29.92 "HgN/A
8:50 AM72 °FPassing clouds.9 mph78%29.92 "HgN/A
8:20 AM72 °FPassing clouds.8 mph83%29.92 "HgN/A
7:50 AM72 °FPassing clouds.7 mph83%29.92 "HgN/A
7:20 AM72 °FPassing clouds.8 mph88%29.95 "HgN/A
6:50 AM72 °FPassing clouds.8 mph88%29.95 "HgN/A
6:20 AM72 °FPassing clouds.8 mph88%29.95 "HgN/A
5:50 AM72 °FPassing clouds.8 mph88%29.95 "HgN/A
4:50 AM72 °FPassing clouds.8 mph88%29.95 "HgN/A
3:50 AM72 °FPassing clouds.9 mph88%29.95 "HgN/A
2:50 AM72 °FPassing clouds.7 mph88%29.95 "HgN/A
1:50 AM72 °FPassing clouds.5 mph83%29.95 "HgN/A
1:20 AM72 °FPassing clouds.9 mph83%29.95 "HgN/A
12:50 AM72 °FPassing clouds.5 mph83%29.95 "HgN/A
12:20 AM72 °FPassing clouds.3 mph83%29.95 "HgN/A
11:50 PM
Mon, Oct 12
72 °FPassing clouds.3 mph83%29.95 "HgN/A
11:20 PM72 °FPassing clouds.3 mph83%29.95 "HgN/A
10:50 PM72 °FPassing clouds.6 mph83%29.95 "HgN/A
10:20 PM72 °FPassing clouds.7 mph88%29.95 "HgN/A
9:50 PM72 °FPassing clouds.7 mph88%29.95 "HgN/A
9:20 PM75 °FPassing clouds.6 mph78%29.95 "HgN/A
8:50 PM75 °FPassing clouds.7 mph78%29.95 "HgN/A
8:20 PM75 °FPassing clouds.5 mph78%29.92 "HgN/A
7:50 PM75 °FPassing clouds.5 mph78%29.92 "HgN/A
7:20 PM77 °FPassing clouds.9 mph74%29.92 "HgN/A
6:50 PM77 °FPassing clouds.9 mph74%29.92 "HgN/A
6:20 PM77 °FPassing clouds.9 mph79%29.92 "HgN/A
5:50 PM77 °FPassing clouds.9 mph79%29.92 "HgN/A
5:20 PM77 °FPassing clouds.10 mph79%29.92 "HgN/A
4:50 PM77 °FPassing clouds.10 mph79%29.92 "HgN/A
4:20 PM79 °FPassing clouds.10 mph65%29.92 "HgN/A
3:50 PM81 °FPassing clouds.10 mph62%29.92 "HgN/A
3:20 PM81 °FPassing clouds.12 mph62%29.92 "HgN/A
2:50 PM81 °FScattered clouds.12 mph62%29.92 "HgN/A
2:20 PM81 °FPassing clouds.12 mph66%29.92 "HgN/A
1:50 PM79 °FPassing clouds.12 mph70%29.92 "HgN/A
1:20 PM79 °FBroken clouds.12 mph70%29.92 "HgN/A
12:50 PM79 °FBroken clouds.12 mph70%29.92 "HgN/A
12:20 PM79 °FPartly sunny.9 mph70%29.92 "HgN/A
11:50 AM79 °FPartly sunny.8 mph70%29.92 "HgN/A
11:20 AM79 °FScattered clouds.6 mph79%29.92 "HgN/A
10:50 AM79 °FScattered clouds.7 mph79%29.92 "HgN/A
10:20 AM77 °FScattered clouds.3 mph89%29.89 "HgN/A
Weather by CustomWeather, © 2015

See weather overviewHow to use our weather pages